Starlink 5997

operational
NORAD ID: 56327 Int'l Des: 2023-058 Owner: SPXS Country: US Constellation: starlink
LEOCIRCULARRETROGRADESSO

About Starlink 5997

Description loading...

Live Position

Loading 3D Globe...

Upcoming Passes

Altitude History

Altitude vs Time

uPlot chart will show altitude changes over time

Two-Line Element Set

1 56327U 23058L 25304.74941498 -.00001222 00000-0 -90611-4 0 9991
2 56327 97.6017 303.9588 0003521 75.3965 284.7649 15.01250472138781
Epoch: Oct 31, 2025 • Age: 7 hours

Current Status

Altitude 572.2 km
Velocity 7.58 km/s
Sub-Earth Point 66.85°N, 124.71°W
Launch Date Apr 27, 2023
Age 2.5 years
Type internet

Technical Details

Classification Payload
Mass 300.00 kg
Dry Mass 260.00 kg
Total Mass 300.00 kg
Length 0.20 m
Diameter 2.80 m
Span 9.00 m
Shape Box + pan
Manufacturer SPXS
Bus Type Starlink
Phase Status In Orbit
Owner/State SPXS/US

Large Constellations

Loading constellations...